sat.trackr.live / text

‹ back to catalog

STARLINK-37212

NORAD 68566 · 2026-070AA

PAYLOAD ACTIVE UNKNOWN

§ Identity

Operator
Country
US
Launch date
2026-04-02
Launch site
AFETR
Launch vehicle
Mass (kg)
RCS (m²)

Purposes: comms

External: N2YO · Heavens-Above · Gunter

§ Orbital elements

Epoch: 2026-09-19T11:16:42.975840Z

Period
93.85 min
Inclination
53.1580°
Eccentricity
0.0001278
Mean motion
15.34406290 rev/d
Perigee alt
461.8 km
Apogee alt
463.6 km
Semi-major
6,840.8 km
B*
3.9823e-4
RAAN
178.2061°
Arg perigee
80.4613°
Mean anomaly
279.6534°
Rev number
2,628

§ Raw data

STARLINK-372121 68566U 26070AA  26262.46994185  .00013105  00000+0  39823-3 0  99972 68566  53.1580 178.2061 0001278  80.4613 279.6534 15.34406290 26288

JSON: /api/v1/satellites/68566 · /tle

For live sub-satellite position, see the globe view (requires WebGL).

§ Visibility from observer

Set your observer location to see the next 7 days of passes ≥ 10°. The values pass through the URL so the page stays shareable.

No JS? Fill the form by hand. The geolocation button needs JavaScript.